Home > Weather > Albany > Past weeks

Flag for Australia Past Weather in Albany, Western Australia, Australia — Yesterday and Last 2 Weeks

Now
48 °F

Overcast.


Feels Like: 44 °F
Forecast: 51 / 56 °F
Wind: 10 mph from West

Location: Albany Airport

Current Time: Jul 23, 2016 at 7:12:01 PM

Latest Report: Jul 23, 2016 at 6:00 PM


Visibility: N/A

Pressure: 30.20 "Hg

Humidity: 75%

Dew Point: 40 °F

Location of AlbanyLocation

Past Weather in Albany — Graph

°F

Albany Temperature Yesterday

Maximum temperature yesterday: 53 °F (at 2:00 PM)
Minimum temperature yesterday: 42 °F (at 11:00 PM)
Average temperature yesterday: 48 °F

High & Low Weather Summary for the Past Weeks

 TemperatureHumidityPressure
High69 °F (Jul 16, 2:00 PM)100% (Jul 12, 9:00 PM)30.46 "Hg (Jul 12, 9:00 PM)
Low35 °F (Jul 13, 2:00 AM)43% (Jul 14, 2:00 PM)29.54 "Hg (Jul 9, 2:00 PM)
Average51 °F78%29.97 "Hg
* Reported Jul 8 6:00 PM — Jul 23 6:00 PM, Albany, Weather by CustomWeather, © 2016

Note: Actual official high and low records may vary slightly from our data, if they occured in-between our weather recording intervals... More about our weather records

Advertising

Albany Weather History for the Previous 24 Hours

Scroll right to see more
 ConditionsComfort  
Time TempWeatherWind HumidityBarometerVisibility
6:00 PM
Sat, Jul 23
48 °FOvercast.10 mph75%30.20 "HgN/A
5:00 PM51 °FCool.13 mph53%30.17 "HgN/A
3:00 PM49 °FOvercast.15 mph72%30.15 "HgN/A
2:00 PM52 °FCool.16 mph65%30.12 "HgN/A
12:00 PM51 °FOvercast.22 mph79%30.12 "HgN/A
11:00 AM53 °FCool.20 mph59%30.11 "HgN/A
9:00 AM48 °FLow clouds.14 mph96%30.07 "Hg2 mi
8:00 AM47 °FCool.16 mph90%30.06 "HgN/A
6:00 AM45 °FOvercast.13 mph90%30.07 "HgN/A
5:00 AM44 °FQuite cool.12 mph90%30.09 "HgN/A
3:00 AM44 °FPassing clouds.10 mph90%30.12 "HgN/A
2:00 AM42 °FQuite cool.9 mph91%30.14 "HgN/A
12:00 AM41 °FQuite cool.9 mph94%30.16 "HgN/A
11:00 PM
Fri, Jul 22
42 °FQuite cool.7 mph92%30.17 "HgN/A
9:00 PM44 °FPassing clouds.7 mph93%30.19 "HgN/A
8:00 PM46 °FCool.8 mph89%30.20 "HgN/A
Weather by CustomWeather, © 2016

See weather overviewHow to use our weather pages